RH
20 19 19 18 17 15 14 12 11 10 9 8 7 7 7 7 7 8 8 9 9 8 8 8 9 8 8 8 8 9 10 11 12 13 14 15 16 16 17 17 17 17 17 17 17 17 17 18 18 19 20 22 23 25 26 26 25 25 25 25 26 25 25 27 27 28 30 31 33 31 28 27 27 28 28 29 35 49 71 86 93 96 99 100 100 100 101 101
20 20 19 18 17 15 13 11 11 10 10 8 7 7 7 8 9 9 10 11 11 11 10 10 10 11 10 10 11 11 12 13 14 15 17 18 19 20 21 22 22 21 21 22 22 22 22 22 22 23 26 28 30 31 32 30 28 27 27 28 27 27 28 27 30 31 30 35 36 33 31 32 34 37 45 58 72 87 98 99 99 100 100 101 101 103 103 102
21 20 19 18 16 15 13 11 11 10 10 10 8 8 8 9 10 11 12 13 14 14 13 13 13 13 13 13 13 13 15 16 16 17 18 19 20 21 23 23 23 22 24 27 27 28 28 29 31 32 33 35 38 38 36 33 33 31 31 34 34 36 37 34 36 36 37 42 42 42 44 51 64 70 80 94 99 101 101 98 100 101 102 103 101 101 98 96
22 21 19 18 17 15 13 12 11 12 11 11 10 9 9 10 11 13 14 15 17 17 16 17 17 17 17 17 17 17 16 16 17 18 19 19 20 20 21 21 21 24 28 33 34 36 37 38 40 40 45 48 45 40 37 39 44 43 40 43 42 42 42 43 42 41 54 59 53 55 58 69 88 95 97 101 101 99 100 100 104 106 103 99 95 91 88 90
22 21 20 18 17 15 14 13 12 13 13 13 12 10 9 10 12 14 16 17 19 21 20 19 20 21 21 22 23 22 19 18 17 17 19 19 20 20 20 21 24 28 33 37 39 41 43 48 54 63 67 60 49 44 43 53 68 66 56 53 52 55 60 67 60 54 72 77 68 71 75 82 90 95 100 100 100 100 101 102 101 98 94 93 92 87 85 91
23 22 21 19 18 16 15 15 14 14 15 14 14 12 11 10 12 15 18 19 20 24 25 24 24 25 25 26 29 29 27 24 20 18 19 20 21 21 22 25 27 30 35 38 42 46 56 67 74 76 70 57 53 57 64 77 90 89 78 66 65 78 86 89 81 71 86 95 91 92 94 98 97 96 100 100 101 99 97 94 90 89 91 96 96 90 87 91
24 23 22 20 19 17 17 16 15 16 16 16 15 14 12 11 12 15 19 22 22 25 29 31 30 31 32 32 33 33 36 36 33 29 27 25 25 25 26 26 28 32 37 42 48 60 77 84 72 59 58 66 70 71 84 95 94 96 94 78 74 93 98 93 85 76 88 102 101 99 98 103 104 99 97 96 96 92 89 88 88 93 97 100 99 94 91 92
24 25 23 21 20 19 18 18 17 17 18 17 17 16 14 13 12 14 18 23 25 26 28 33 37 39 41 42 39 38 42 46 50 52 47 40 35 32 31 30 30 33 40 52 64 79 93 87 64 56 63 79 87 84 95 102 95 97 98 81 75 92 99 94 89 81 87 97 93 92 94 99 101 98 94 90 88 88 91 94 94 96 96 98 101 101 100 98
25 26 25 22 22 21 19 19 19 19 19 19 19 18 17 15 14 13 16 20 24 26 25 30 40 48 53 52 49 49 52 53 60 68 66 59 50 44 41 40 39 38 42 57 79 89 91 86 78 81 78 77 94 100 101 102 97 100 98 84 77 85 92 90 88 86 87 89 84 82 88 95 98 95 93 91 89 88 92 95 95 95 97 99 101 102 104 104
26 27 26 24 23 23 21 20 21 21 21 21 21 20 19 18 16 14 15 17 21 25 25 28 37 50 59 60 59 58 56 58 65 72 75 73 65 59 58 54 52 55 51 55 77 88 84 85 88 92 85 82 100 103 100 103 99 100 100 91 81 76 81 82 80 81 83 84 82 81 85 94 97 94 95 96 91 86 86 89 92 92 95 99 102 102 102 102
27 28 27 26 25 24 23 21 21 23 22 23 23 22 21 20 19 17 16 16 18 21 23 25 30 42 55 62 67 63 56 56 61 68 76 81 76 71 72 69 64 70 74 70 73 74 74 77 76 80 84 90 104 100 97 105 102 102 102 95 86 76 78 81 79 80 81 80 80 81 85 91 95 96 96 93 90 87 85 86 87 85 86 93 101 104 103 102
27 28 28 27 28 27 25 23 22 24 24 25 25 24 23 22 22 20 19 18 17 18 19 20 23 31 41 50 58 60 59 60 59 60 67 77 83 82 85 84 77 78 90 97 85 67 66 69 67 77 87 93 103 96 89 96 97 97 96 90 83 77 84 91 90 90 89 85 82 82 83 85 87 89 89 88 91 95 95 95 94 91 90 91 97 102 103 101
28 29 30 29 30 29 27 26 24 24 25 26 26 26 25 24 24 23 22 21 18 17 16 17 18 21 28 35 40 45 54 65 66 62 59 63 73 79 86 90 88 86 94 105 100 81 72 69 65 73 85 95 101 92 83 87 88 85 85 86 79 75 84 92 95 97 97 98 97 95 96 94 92 91 90 88 90 94 95 96 96 98 99 99 101 103 104 104
29 30 31 31 32 31 29 28 26 25 26 28 28 28 27 26 25 25 24 23 21 18 16 16 15 15 19 24 30 34 44 58 65 66 64 61 58 59 67 74 79 86 95 104 105 99 91 82 71 66 74 89 96 93 90 90 86 80 79 82 81 78 83 89 94 98 102 105 105 105 106 106 104 103 101 98 95 96 95 94 93 95 97 98 99 99 97 96
31 30 31 32 33 33 31 30 28 26 25 28 29 29 28 27 27 26 26 25 23 21 19 18 17 16 17 18 22 27 35 47 54 59 65 66 60 54 53 58 65 74 87 97 102 105 102 95 86 72 67 77 86 92 96 95 91 86 83 83 82 80 81 83 86 90 95 100 102 102 100 99 100 101 101 100 97 97 95 93 92 91 91 90 90 88 86 82
36 32 31 32 32 33 33 32 31 28 26 27 30 30 30 29 28 27 26 26 25 24 23 22 21 20 20 19 19 21 26 36 44 50 56 61 61 59 56 56 60 66 73 79 83 90 94 96 94 81 67 68 81 90 93 92 89 87 87 88 87 87 87 88 87 89 92 95 97 92 84 81 83 83 84 83 81 80 78 78 78 77 77 77 77 77 76 75
45 36 32 32 32 33 34 34 34 32 28 27 30 32 31 30 30 29 28 28 28 28 27 26 25 25 25 23 22 22 22 26 33 39 44 50 54 58 60 57 54 57 62 65 67 72 79 86 85 74 62 61 74 87 90 86 80 78 79 82 84 86 89 91 91 90 89 89 86 77 68 67 67 66 66 64 62 60 59 59 59 59 59 59 60 60 61 63
55 45 36 33 33 33 34 36 36 35 32 29 30 32 32 32 31 30 30 30 29 29 30 29 28 28 28 27 26 26 26 26 27 30 33 38 43 47 50 48 42 42 48 54 59 63 65 66 64 59 55 55 63 77 84 82 79 80 82 83 83 83 85 85 83 81 79 77 73 67 62 60 59 56 54 52 50 48 47 47 46 45 45 44 44 44 45 47
61 56 45 37 35 34 35 36 37 38 35 32 30 31 32 33 32 31 31 31 30 30 32 33 32 32 31 31 32 32 31 30 28 27 27 28 32 35 36 35 33 32 34 39 46 51 52 51 52 52 51 52 56 65 74 79 85 91 96 98 96 95 92 86 78 72 69 66 63 59 56 53 51 50 48 47 45 44 42 40 38 36 34 33 32 32 32 33
62 63 57 47 40 37 36 37 38 38 37 34 31 30 32 33 33 32 32 31 31 31 33 34 35 35 35 34 35 35 34 33 31 29 27 24 24 26 27 28 29 29 30 33 38 42 45 47 50 49 48 48 51 57 64 72 79 83 84 83 82 81 76 69 64 60 58 56 55 53 51 50 49 49 48 47 45 44 42 40 38 35 32 30 26 26 25 25
60 64 64 57 49 43 39 37 38 38 38 37 34 31 32 34 34 34 34 32 32 32 32 34 35 35 35 35 34 34 35 35 34 33 32 30 28 27 26 25 26 27 27 29 31 33 34 37 39 40 41 43 46 50 55 58 60 59 56 54 54 56 55 54 55 55 55 54 55 55 54 52 51 50 50 49 49 48 48 46 44 41 37 34 29 26 24 22
60 62 65 64 58 51 44 39 38 39 39 39 36 32 31 33 34 35 35 33 32 33 32 32 34 36 37 37 36 35 36 38 38 37 39 40 40 38 36 35 33 32 30 29 28 29 29 30 32 34 37 41 43 47 49 48 48 47 47 48 51 53 54 55 55 55 55 55 57 57 54 52 51 52 52 51 52 51 51 50 48 47 46 44 41 37 33 28
61 61 63 66 64 59 51 44 40 39 39 40 38 35 32 32 34 36 37 36 33 33 33 31 31 35 37 37 39 39 39 39 40 40 41 43 45 45 46 47 45 42 40 39 37 36 36 37 38 40 42 45 47 49 49 49 48 49 50 51 52 53 53 54 54 54 54 56 56 54 51 52 52 54 55 54 55 55 55 55 55 55 54 53 52 49 46 41
62 61 62 64 66 64 57 51 44 40 39 40 40 38 34 33 35 36 37 36 34 33 33 31 31 32 33 35 38 41 39 38 39 41 41 41 42 44 46 49 49 48 47 45 44 43 43 43 43 44 45 46 47 48 48 49 49 50 50 50 51 53 54 54 55 55 55 57 56 54 53 54 54 55 56 57 57 57 57 58 59 59 59 58 57 56 54 52
62 62 62 62 64 66 63 58 50 43 39 38 40 41 38 36 36 37 37 37 35 33 33 33 32 30 31 33 35 38 38 37 38 40 41 41 41 43 47 50 51 51 51 50 49 49 49 48 48 48 47 46 47 49 50 52 53 52 52 52 54 55 55 55 55 55 56 56 55 54 54 54 55 57 57 57 57 57 57 58 59 59 58 57 58 59 58 57
61 62 63 63 62 65 66 64 58 49 41 39 40 42 42 40 39 38 37 38 36 34 33 33 32 31 31 31 32 34 35 35 37 38 40 41 42 43 45 46 47 50 52 52 50 50 52 52 53 53 52 51 51 52 54 55 54 53 52 52 53 53 54 53 53 53 53 53 52 52 54 55 57 59 60 60 59 59 59 60 61 60 58 56 57 59 60 61
61 61 63 64 62 63 65 67 66 58 49 44 43 44 44 43 41 40 38 38 38 36 34 33 32 31 31 30 31 33 33 33 35 36 38 40 40 42 41 41 42 46 49 49 47 49 52 52 53 53 52 52 51 51 51 51 51 49 48 48 50 50 50 50 51 53 53 52 51 52 53 54 57 60 61 61 61 61 62 62 62 61 59 58 58 59 60 62
61 60 61 64 64 62 63 66 70 68 58 50 47 45 45 46 44 42 41 40 39 38 36 34 33 32 32 32 32 33 33 32 34 34 35 37 38 39 40 40 41 43 45 45 44 47 49 49 49 49 49 49 49 49 48 47 46 46 46 47 48 48 49 50 51 53 53 52 52 53 53 54 57 59 60 61 61 61 62 64 64 62 61 61 60 60 60 62
60 60 60 62 64 64 63 63 68 73 66 54 51 48 45 46 46 45 44 42 40 39 38 37 35 33 33 33 33 33 33 32 33 33 34 35 36 37 38 38 38 40 42 40 40 43 44 44 45 45 47 48 48 48 48 49 49 49 50 50 51 50 50 52 53 53 52 51 52 53 53 56 59 59 59 59 59 61 62 63 64 64 64 64 63 61 60 61
59 59 59 60 63 64 64 63 63 70 72 62 54 51 48 46 46 47 47 44 41 40 40 40 38 36 34 34 34 34 34 34 34 33 33 34 34 36 36 35 37 38 39 38 38 40 42 43 46 48 50 51 51 52 53 55 57 57 59 58 57 56 56 56 56 55 54 53 52 52 53 56 58 58 58 57 58 59 61 61 62 63 66 66 65 63 61 61
59 59 59 59 61 63 65 65 62 64 71 69 61 55 52 50 47 48 49 48 44 41 40 42 42 40 37 35 35 35 35 35 35 34 34 34 35 36 36 37 39 40 41 42 42 44 46 48 49 50 52 52 54 56 58 60 61 62 64 63 62 63 64 64 63 62 60 59 58 58 59 60 59 57 55 55 56 58 59 60 60 62 64 66 65 63 61 60
58 60 60 59 59 61 63 65 64 63 66 71 71 63 55 52 50 50 50 50 48 45 42 43 44 43 42 40 38 37 36 35 35 35 34 35 36 37 39 41 43 44 45 46 47 49 51 52 52 54 55 56 57 59 62 64 63 63 65 66 66 67 68 69 68 67 66 66 66 66 67 66 63 60 57 55 55 56 58 59 60 61 62 62 62 62 61 59
56 59 62 61 60 60 61 64 64 64 65 67 72 72 63 55 53 54 52 49 50 50 46 44 45 44 44 45 43 41 39 37 36 35 36 36 37 38 41 43 45 46 47 48 49 50 53 55 56 59 61 62 64 66 68 69 69 70 71 72 72 71 70 70 69 68 69 70 72 73 74 73 70 67 64 63 61 59 59 59 61 63 63 61 60 61 62 61
55 58 61 63 63 60 59 61 62 63 66 65 66 72 73 65 57 55 55 51 49 51 50 47 46 45 45 47 47 46 43 41 39 38 37 37 38 39 41 43 44 46 47 48 49 51 53 56 58 62 65 66 68 71 72 72 74 76 78 80 79 78 77 77 76 76 76 76 77 78 78 78 76 76 77 77 73 69 65 62 61 63 64 61 60 61 63 64
54 56 59 62 63 62 59 59 60 61 64 66 65 67 73 75 67 56 53 53 52 51 51 51 49 47 47 47 48 49 48 46 45 43 42 41 40 40 41 43 44 46 47 49 51 53 56 59 61 64 66 67 69 72 74 74 75 76 79 81 82 83 86 87 87 87 87 86 85 82 81 79 77 79 84 87 84 79 74 68 65 63 62 61 61 61 62 64
55 55 57 59 60 62 60 59 59 60 61 64 67 66 67 73 76 67 55 52 54 53 51 51 52 50 50 49 48 49 50 50 50 49 48 47 46 45 44 45 45 47 48 50 52 55 58 62 64 65 66 67 68 70 71 73 74 75 79 81 81 83 88 91 92 93 94 94 90 87 85 82 81 82 83 85 87 85 80 75 71 66 60 59 61 62 63 64
55 55 55 56 59 60 60 58 57 58 59 60 64 68 65 64 73 77 68 56 51 52 53 53 53 53 53 52 51 50 50 51 52 52 52 52 52 51 51 50 50 50 51 52 55 56 58 61 61 63 64 63 63 65 67 70 73 76 80 82 84 87 88 90 93 95 96 96 94 93 92 89 87 87 84 82 83 84 81 78 74 68 62 59 59 59 62 65
53 55 54 55 57 59 59 58 57 57 58 59 61 65 65 62 64 73 80 73 61 53 52 53 55 55 54 54 54 53 52 52 52 53 54 55 55 56 56 56 56 56 56 56 57 58 59 60 61 62 62 62 63 65 68 71 74 79 83 85 89 94 95 95 96 97 97 97 97 98 101 100 95 92 90 85 82 79 78 78 75 70 67 63 60 58 59 61
51 52 53 54 56 56 57 58 59 58 58 59 60 61 63 63 63 65 73 81 81 72 60 53 52 55 55 55 56 56 55 54 53 53 53 55 55 56 58 58 59 60 60 60 60 61 62 63 63 64 64 65 67 69 71 72 74 79 85 88 92 97 99 100 100 100 98 97 98 100 104 108 104 97 93 86 81 77 75 76 78 78 77 71 65 63 60 59
50 51 51 52 53 55 57 58 60 62 60 57 57 59 60 62 64 66 66 71 82 85 78 67 57 53 54 56 56 57 57 56 55 54 54 54 54 55 56 58 59 60 60 61 62 63 64 65 66 66 66 68 69 70 71 71 73 78 83 87 91 95 99 100 100 100 97 94 94 95 100 107 106 98 90 82 76 73 73 72 75 79 80 80 78 73 65 61
52 50 50 51 51 52 55 58 59 62 63 59 56 56 59 59 62 67 68 65 69 77 84 86 76 62 55 53 53 56 59 58 57 57 57 56 55 56 57 57 57 58 60 61 62 63 65 66 68 68 69 69 70 70 70 69 71 75 79 84 87 91 97 102 100 95 91 89 90 90 92 99 102 95 86 79 72 69 69 68 69 71 74 79 85 81 71 65
66 56 49 48 50 50 53 56 58 61 63 62 58 53 54 56 59 64 66 63 61 65 74 86 88 78 66 59 54 53 56 57 57 59 60 59 59 59 58 58 58 59 60 61 62 63 64 66 68 70 70 70 70 70 70 70 71 73 77 83 88 89 91 97 100 92 84 82 86 90 88 91 98 96 85 77 73 70 68 66 67 68 69 74 80 80 75 68
81 73 60 50 47 48 51 54 57 60 61 62 58 53 51 53 56 61 62 59 58 60 63 71 79 80 78 76 70 61 55 53 54 56 58 60 61 61 60 60 60 60 61 61 62 63 64 65 67 69 70 71 70 70 71 72 73 74 77 83 90 94 92 92 94 92 85 79 81 89 91 90 95 98 92 82 78 74 71 70 68 66 67 71 74 75 74 69
86 83 77 65 53 47 48 52 55 57 58 58 57 55 52 52 55 58 57 55 56 59 60 63 67 70 75 81 82 77 69 60 55 53 53 55 58 60 62 62 62 63 63 63 63 64 65 66 66 67 69 70 71 72 73 74 76 78 79 82 87 93 95 93 91 90 88 84 82 85 91 95 96 99 99 91 85 82 79 75 70 65 66 69 69 67 66 65
91 87 84 79 70 60 52 50 52 55 56 56 55 55 54 53 54 54 54 54 55 57 60 64 66 66 66 69 74 79 82 79 70 60 54 52 52 54 58 60 62 63 64 65 65 65 66 67 68 68 69 71 71 72 73 75 78 79 81 83 84 88 94 95 92 90 89 88 86 84 88 96 100 99 100 97 91 84 81 79 74 70 68 65 62 59 57 58
100 96 91 84 80 76 68 57 51 51 52 53 53 53 54 54 54 53 53 54 55 56 59 64 69 70 68 66 66 69 74 80 81 75 67 60 54 52 52 54 58 59 61 64 65 66 66 66 68 69 71 72 73 74 74 75 78 80 81 83 84 87 93 97 93 87 84 85 87 85 84 91 100 99 96 98 94 81 77 81 80 75 70 63 58 55 54 54
106 104 100 93 86 83 81 75 64 55 51 50 50 50 51 53 53 53 54 55 55 55 57 61 66 71 73 72 69 67 64 67 73 78 78 75 69 62 56 53 52 53 56 60 62 63 65 66 67 69 71 73 74 75 75 76 78 79 78 80 83 85 89 94 92 84 78 77 80 84 83 83 94 99 94 93 94 82 75 80 82 75 69 64 60 56 56 57
104 109 104 99 95 91 87 84 79 72 63 54 48 47 50 52 53 53 54 56 56 54 54 56 60 65 69 71 70 68 65 62 63 67 73 79 80 78 71 62 55 52 52 53 56 59 62 64 65 66 68 71 73 74 76 76 79 80 77 77 81 84 85 87 88 85 79 74 72 78 81 79 85 96 94 89 91 87 78 79 82 76 69 68 68 63 60 61
80 103 108 103 102 102 96 89 84 81 78 70 59 52 50 51 53 52 53 54 55 55 53 52 54 58 61 64 66 66 65 62 61 60 62 68 76 84 86 76 65 60 57 53 52 54 57 60 63 65 67 69 69 71 74 75 77 80 79 77 80 83 84 83 83 82 81 77 71 71 77 77 77 87 94 91 90 89 81 78 82 80 75 77 78 73 68 66
47 74 97 106 108 108 104 99 92 86 83 80 75 69 63 57 52 50 51 52 53 54 53 51 52 55 56 57 61 64 64 62 60 58 57 58 63 74 84 83 76 72 70 65 59 55 55 56 58 62 65 67 68 69 70 71 73 77 80 80 80 81 82 81 80 78 78 77 74 70 72 76 74 79 90 94 91 89 83 77 79 83 84 88 89 84 78 72
37 43 64 89 106 110 107 104 100 95 90 85 82 81 80 74 65 56 51 50 50 52 53 52 52 53 53 53 56 60 62 60 59 58 57 56 56 60 68 76 79 79 79 75 69 65 63 60 58 59 60 63 66 68 69 68 69 73 78 81 82 83 83 81 78 77 76 76 76 75 74 77 76 75 84 92 90 89 85 78 77 82 89 95 97 92 85 78
43 38 41 57 82 101 107 106 103 99 98 95 89 85 85 85 82 73 61 53 49 48 50 52 52 52 51 50 51 54 57 58 58 58 59 59 57 56 57 61 67 74 79 79 77 75 73 71 68 64 61 61 62 65 67 68 67 70 75 79 84 88 86 83 81 80 80 79 80 81 79 80 79 75 78 86 87 86 86 83 79 81 88 95 98 94 89 83
Wind_Speed
23 24 24 24 25 26 27 27 27 27 27 27 26 26 25 25 26 25 23 22 21 19 18 16 14 13 12 10 8 6 5 5 5 5 6 6 6 6 6 7 9 11 13 15 17 19 21 22 23 23 23 23 23 23 25 26 28 28 29 29 30 30 29 28 27 26 25 24 26 29 31 29 28 27 27 26 26 25 23 22 21 22 23 24 26 27 27 26
21 22 23 23 24 25 25 25 25 26 27 27 27 27 26 27 27 26 24 23 22 20 18 17 15 15 14 13 12 10 9 9 9 9 10 10 10 10 10 9 9 10 10 9 10 11 12 13 15 16 16 17 18 18 20 22 23 24 24 25 26 25 24 24 23 24 23 23 25 27 26 24 23 23 22 22 21 20 19 18 19 21 23 24 24 25 25 25
20 21 22 22 23 23 23 23 25 27 28 29 29 29 28 28 28 27 25 24 23 21 20 19 18 18 18 18 16 14 13 12 11 11 11 12 12 13 13 13 13 12 11 10 9 8 8 8 10 12 13 14 16 17 17 17 17 19 19 19 20 19 19 20 21 22 21 23 24 23 22 20 19 19 20 20 21 19 17 17 20 22 22 22 22 23 23 24
19 20 21 21 22 22 22 23 25 28 31 32 32 32 30 29 30 29 26 25 24 23 21 21 21 21 22 22 21 18 15 14 12 12 12 12 12 12 12 12 12 13 14 13 12 11 10 10 11 12 13 15 16 16 15 14 13 15 16 16 16 16 18 20 21 21 20 21 22 21 20 19 17 18 19 21 22 20 19 19 21 21 21 21 21 22 22 23
19 20 21 21 21 21 23 24 26 30 33 35 35 34 33 31 31 31 29 26 25 25 24 23 24 24 25 25 25 23 20 17 14 13 13 12 11 11 11 12 13 16 17 16 16 15 15 15 16 17 18 17 16 14 14 12 11 12 15 16 16 16 16 17 19 19 18 18 18 18 18 18 19 19 20 20 22 22 21 21 21 20 20 20 21 22 22 23
19 21 21 21 21 22 24 26 28 32 35 37 37 36 35 33 32 32 31 28 27 27 26 26 26 26 26 27 28 27 26 23 19 18 16 15 15 15 15 15 17 18 19 19 19 19 20 21 22 22 20 17 16 16 13 12 12 11 11 13 16 17 15 13 15 17 17 16 15 15 16 17 19 20 20 20 20 21 21 21 20 20 20 21 23 23 23 24
20 22 22 22 22 23 25 28 29 33 36 38 39 38 37 35 34 33 32 31 28 27 27 27 27 28 27 26 26 27 29 28 26 25 22 20 19 19 18 18 19 21 21 21 21 23 24 23 21 19 18 17 17 17 15 13 13 11 9 12 16 18 18 14 12 13 15 16 15 16 17 18 18 19 20 19 18 19 19 19 19 20 21 23 24 24 24 25
21 23 23 23 24 25 26 29 31 34 37 39 40 40 39 38 36 34 33 31 30 28 27 27 28 28 28 26 25 26 28 29 29 29 27 24 21 20 20 19 20 20 22 23 24 25 25 21 17 16 17 18 18 16 16 14 13 12 11 11 15 18 19 18 13 10 13 16 17 17 17 18 19 19 19 18 17 17 17 18 20 21 22 24 25 26 26 27
22 25 25 26 28 28 28 30 33 35 38 40 41 41 41 40 38 36 34 32 31 29 27 27 28 28 28 26 25 25 26 28 29 29 27 25 22 22 21 20 19 18 20 24 26 26 23 20 15 14 15 16 17 16 16 16 15 14 12 9 12 17 18 18 16 12 13 16 17 17 16 17 18 18 18 18 17 17 18 19 21 22 23 25 27 29 29 29
24 26 27 28 30 31 30 31 34 36 38 40 41 42 42 41 40 39 37 34 32 29 27 26 26 26 26 25 24 24 24 26 27 27 26 24 23 22 22 20 19 18 17 19 24 23 20 19 16 14 14 14 17 16 15 15 16 16 14 11 12 14 15 15 15 14 14 16 17 16 16 17 17 18 18 19 19 20 20 21 22 24 25 27 28 30 31 32
24 27 29 31 33 33 33 32 34 37 38 40 42 42 42 42 42 41 39 37 34 30 27 25 25 25 24 23 23 22 22 23 24 25 24 23 21 21 21 18 17 18 16 15 18 17 17 17 13 13 14 14 16 16 14 15 16 17 17 15 14 13 14 13 13 13 14 15 16 16 16 17 18 19 20 21 22 23 24 25 26 27 28 29 30 31 32 33
25 27 30 32 34 35 35 34 34 37 39 41 42 42 43 43 43 42 41 39 36 33 29 27 25 25 23 22 21 21 22 22 21 21 22 21 19 18 18 16 15 17 17 16 15 10 10 11 8 11 13 12 15 15 13 14 16 17 18 17 15 14 13 13 13 13 14 15 16 16 16 17 19 21 22 23 24 25 26 27 28 29 30 31 31 32 33 34
24 27 30 32 35 36 36 35 35 36 39 41 42 42 42 42 43 42 42 40 38 36 33 31 28 27 26 23 21 20 21 21 20 19 18 18 17 16 15 13 13 15 16 16 14 7 4 3 3 9 12 11 13 12 11 12 13 14 15 15 14 13 12 13 13 14 15 16 17 18 18 19 21 23 24 25 26 27 28 29 30 31 32 33 34 35 35 36
23 26 29 32 34 36 36 36 36 36 38 40 41 42 42 42 42 42 42 41 40 39 37 36 33 32 30 27 23 21 20 19 18 17 15 14 14 14 14 13 13 14 15 14 13 9 5 3 2 4 10 10 10 10 10 11 11 10 10 11 12 12 12 13 14 15 16 17 18 20 21 22 24 25 27 28 29 29 30 32 33 34 36 36 37 38 39 40
22 24 27 30 33 35 36 37 36 35 37 39 41 42 42 42 42 41 41 41 41 40 40 39 38 37 35 31 28 25 22 19 17 16 15 13 12 12 13 13 12 12 13 13 12 11 8 6 5 4 5 8 8 8 9 10 10 9 9 9 10 11 12 13 14 15 16 17 19 20 22 24 26 27 29 29 30 30 31 33 35 37 38 39 40 41 42 43
21 23 25 28 31 33 35 37 37 36 36 38 41 41 42 42 42 41 41 42 42 42 41 41 40 40 39 35 33 29 25 22 18 16 14 12 10 10 11 11 11 10 9 10 9 8 7 6 7 7 4 4 6 7 8 8 8 8 8 9 10 11 13 14 15 17 17 18 19 20 22 23 24 26 28 29 30 30 31 33 35 37 39 40 42 43 44 46
21 22 23 26 28 31 33 36 37 37 36 37 40 41 41 42 41 41 41 41 41 41 41 40 41 41 41 39 37 34 30 27 22 18 15 13 11 10 9 9 10 10 9 7 6 6 4 5 7 7 5 3 4 5 6 6 6 6 7 7 8 9 11 14 15 16 17 17 19 21 22 22 22 23 25 26 28 29 30 32 34 36 38 40 42 44 45 47
22 21 22 24 26 29 32 34 36 37 37 36 38 40 41 41 41 41 40 40 40 40 40 40 40 41 41 41 40 38 37 34 29 24 19 16 12 10 9 9 10 12 11 8 7 5 4 3 3 3 2 1 1 3 4 5 6 8 9 9 9 10 11 13 13 14 15 16 19 21 22 22 22 22 23 25 26 27 28 29 31 32 34 35 37 40 42 44
23 22 22 22 24 27 30 32 34 35 36 36 36 38 40 41 41 41 40 40 39 39 39 39 40 40 41 42 42 41 41 39 36 32 27 23 19 15 13 13 14 15 16 14 10 7 4 3 3 3 4 5 5 4 2 3 5 8 11 12 13 14 15 15 15 16 16 17 18 19 19 18 18 18 19 19 19 19 19 19 20 21 23 25 26 29 31 34
22 23 22 22 23 25 27 29 31 33 34 35 35 36 39 40 41 41 40 39 38 38 37 38 38 39 40 40 40 40 41 41 41 39 37 33 29 25 22 20 19 20 20 19 16 13 10 8 7 7 8 9 10 9 8 7 6 7 8 9 10 11 12 12 12 12 12 11 11 11 12 12 12 11 12 12 14 15 15 16 16 17 18 19 20 20 22 23
21 22 22 22 21 22 24 26 28 30 32 34 33 34 37 39 40 41 40 39 38 37 36 36 37 38 39 39 38 39 40 42 42 43 43 42 40 36 33 30 28 27 26 25 23 20 18 16 14 14 14 14 15 14 13 11 10 8 7 7 8 8 9 11 13 14 16 17 19 20 19 18 18 18 19 19 19 19 19 19 20 20 21 22 22 22 22 21
18 20 22 22 21 21 21 23 25 27 30 32 32 33 35 37 39 40 40 39 38 37 36 35 36 37 38 38 37 37 39 41 42 43 45 45 45 44 42 41 39 37 36 35 34 32 31 30 28 27 26 26 25 24 23 22 21 20 20 20 21 21 23 24 25 26 25 26 27 25 22 21 22 22 23 22 22 22 22 23 24 25 26 28 28 29 29 29
15 18 20 21 21 20 19 20 22 24 27 29 30 32 33 36 38 39 39 38 37 37 35 35 35 36 36 36 36 36 37 39 40 41 43 44 44 45 46 46 44 43 43 42 41 40 40 40 39 39 39 38 37 36 35 34 33 32 32 31 31 31 32 31 30 29 29 29 28 25 23 24 25 25 25 26 26 26 27 27 28 29 30 31 32 33 33 33
12 15 18 20 20 19 18 18 19 21 23 26 28 30 32 34 37 37 38 38 36 36 35 35 35 35 35 36 36 36 35 36 38 39 40 41 42 44 46 46 45 44 44 43 43 43 42 42 42 42 42 42 42 41 41 40 38 37 36 35 35 35 34 33 32 31 31 30 28 26 26 27 28 29 29 29 30 30 30 31 32 33 34 34 35 35 35 35
9 12 14 17 19 19 18 17 17 18 20 22 26 28 30 32 35 35 36 36 35 35 35 35 34 34 35 36 36 36 35 36 37 38 39 39 40 42 44 44 44 44 43 42 42 43 43 42 42 42 41 41 42 42 42 41 40 38 37 36 36 36 35 34 34 33 33 32 30 30 30 31 32 32 32 33 33 33 34 35 36 37 37 38 38 39 39 39
7 9 11 14 17 18 18 17 16 16 17 20 23 26 28 30 32 32 33 34 33 33 34 33 33 33 34 35 35 36 36 37 37 38 39 39 39 40 41 41 42 43 42 41 41 42 42 42 42 41 40 40 41 42 42 42 40 39 38 38 38 37 36 36 36 35 35 33 33 33 33 34 34 34 34 34 35 35 36 38 38 39 39 40 42 43 43 43
6 7 9 11 14 16 17 17 16 15 16 18 21 23 25 27 29 29 30 31 31 31 31 32 32 32 33 34 35 36 36 36 37 38 39 39 40 40 40 41 42 43 43 41 42 44 44 43 43 43 42 43 42 43 43 43 42 41 40 40 40 39 39 38 38 37 36 35 35 36 36 36 36 36 35 34 35 36 37 39 39 40 41 42 44 45 46 46
6 6 7 8 11 13 15 16 16 16 15 16 17 19 21 24 25 26 27 28 28 28 29 30 31 31 33 33 34 36 35 35 36 37 38 40 40 41 41 42 43 44 44 43 45 47 46 46 46 46 45 45 45 45 44 44 43 42 42 42 41 41 40 40 39 39 38 37 37 37 37 38 38 37 36 35 36 37 38 39 40 40 42 43 45 46 47 47
7 6 6 6 8 10 13 15 16 15 14 14 14 15 17 20 22 23 24 25 25 25 27 28 29 30 31 32 34 34 34 34 35 36 38 39 40 41 42 42 44 45 45 44 46 47 47 46 46 46 46 45 45 44 43 43 42 42 41 41 40 40 39 39 38 38 37 37 37 37 38 39 38 37 36 36 36 37 38 39 40 41 43 44 45 46 47 48
7 6 6 6 6 8 10 12 14 15 14 13 13 13 14 16 17 20 21 22 21 22 24 25 26 27 28 30 32 33 33 33 33 34 36 37 39 40 41 42 43 44 43 43 44 45 45 44 44 44 44 43 42 41 41 41 40 39 39 38 38 37 37 37 36 35 35 35 35 36 37 37 37 36 36 36 36 37 38 38 40 41 43 44 45 46 47 48
9 8 7 6 6 6 7 9 11 13 14 13 12 12 11 12 14 16 18 18 19 19 21 22 23 24 25 28 29 30 30 31 31 32 33 35 37 38 39 40 40 40 40 40 40 41 41 41 40 40 40 40 39 39 39 38 37 37 37 36 35 35 35 34 33 33 33 34 34 34 35 35 34 34 34 35 36 37 38 38 39 41 42 43 44 45 46 47
10 9 8 7 6 6 6 7 8 10 12 12 12 11 10 10 11 12 14 14 16 17 18 19 20 20 22 24 26 26 27 27 28 29 30 32 33 34 36 36 36 36 36 36 36 37 37 37 37 37 37 36 36 36 36 36 35 36 36 35 34 34 33 32 32 32 32 32 32 32 32 32 32 32 33 34 36 37 37 38 39 39 40 41 42 44 45 46
12 11 10 9 8 7 6 7 6 7 9 11 11 10 9 9 9 9 9 11 13 14 15 16 16 17 18 20 22 22 23 23 24 25 26 28 29 30 31 32 32 32 32 32 32 33 33 33 34 34 33 33 33 33 33 33 34 34 34 33 33 32 32 32 32 32 32 31 31 31 31 31 31 32 33 34 35 35 36 37 38 38 39 39 41 43 44 45
14 13 12 11 10 9 8 7 7 5 6 8 10 10 9 8 7 6 6 7 9 10 11 12 13 14 15 17 17 18 19 19 20 21 22 23 24 25 26 27 27 27 27 28 28 29 30 30 30 30 30 30 30 31 31 31 32 32 32 32 31 31 31 31 31 32 32 32 32 31 31 30 30 31 32 33 33 34 34 34 35 36 37 37 39 41 42 44
17 15 14 13 12 11 10 9 8 7 5 5 7 8 8 7 6 5 4 4 6 7 8 9 10 11 12 13 13 13 14 16 17 17 18 19 19 20 21 22 23 22 23 23 24 25 26 26 26 26 26 26 27 28 29 29 29 30 30 30 30 30 30 30 30 30 31 31 31 31 31 30 30 30 30 30 31 31 32 32 33 33 33 35 37 38 40 42
19 18 17 16 14 13 12 11 10 9 7 6 5 6 6 6 5 4 4 3 3 3 4 6 7 8 9 9 9 10 11 12 13 13 14 15 15 16 17 17 18 18 18 19 20 21 22 22 22 22 23 23 24 25 26 27 27 28 28 28 28 29 29 28 28 28 29 29 30 30 30 30 30 30 30 29 28 29 29 30 31 30 31 33 35 36 38 40
22 21 19 17 16 15 15 14 13 11 10 8 7 7 6 5 5 4 4 3 2 1 1 3 3 4 5 6 6 7 7 8 8 9 10 11 12 12 13 14 14 14 15 16 17 18 18 18 19 19 20 21 22 23 24 24 25 26 27 27 27 28 28 27 27 27 26 27 28 29 30 30 30 30 29 29 27 27 27 28 28 28 29 31 33 34 36 38
25 24 22 20 18 17 17 15 14 14 12 11 10 9 7 5 5 4 4 3 2 2 1 0 0 1 1 2 3 4 4 5 5 5 6 7 8 9 9 10 11 12 12 13 14 15 16 16 17 18 18 19 20 21 22 23 24 24 25 25 25 26 26 26 26 26 25 25 26 27 29 30 30 29 29 28 27 26 26 26 27 28 29 30 31 33 34 36
28 27 25 23 21 19 18 17 16 16 15 14 13 11 10 8 5 4 4 3 3 3 2 2 2 2 2 1 0 1 1 2 2 2 3 3 4 5 6 7 8 9 10 11 12 13 14 15 15 16 17 18 19 20 21 21 22 23 23 23 23 24 24 25 25 25 24 24 24 25 27 29 29 28 28 27 27 26 26 26 26 28 29 30 30 31 32 34
30 29 28 26 23 21 19 18 18 18 18 17 15 14 12 11 9 7 5 4 4 4 3 3 3 3 4 4 3 3 3 3 2 2 2 2 2 3 3 4 5 7 8 9 10 11 12 13 15 15 16 17 18 18 19 19 20 21 21 21 21 21 22 23 23 23 22 22 22 23 25 26 27 27 27 27 27 27 27 27 27 27 28 29 30 30 31 33
31 31 30 28 26 24 22 21 20 20 20 19 18 17 16 14 12 11 9 7 5 5 4 4 5 4 4 5 5 6 6 6 4 4 5 4 4 4 4 5 5 6 7 8 9 10 11 12 13 14 15 16 17 17 18 18 19 19 19 19 19 19 20 21 21 20 20 20 20 21 23 24 26 26 26 27 27 28 28 28 28 28 28 28 29 30 30 31
32 32 32 31 29 27 25 24 23 22 22 21 21 20 19 16 15 14 13 11 7 6 5 5 6 6 6 5 6 7 8 9 8 7 7 7 7 7 7 7 7 7 7 8 9 10 11 11 12 13 14 15 15 16 17 18 18 18 17 17 18 18 18 18 19 19 19 18 19 20 22 23 24 25 25 26 27 28 29 29 29 29 28 29 29 29 30 30
34 34 34 33 32 30 28 27 26 26 25 24 23 22 20 18 17 17 17 14 10 7 7 6 7 8 8 7 7 7 8 9 10 10 10 10 9 9 9 9 9 9 9 9 10 10 11 11 12 12 13 14 15 16 16 17 18 17 16 15 16 17 17 17 18 18 18 18 18 19 21 23 24 25 25 26 27 28 29 29 29 29 29 29 29 28 29 29
37 36 35 34 33 32 31 30 30 29 28 27 25 24 22 20 20 20 19 16 13 11 9 8 8 8 9 9 9 9 9 10 10 11 12 12 12 11 12 11 11 11 12 12 11 12 12 13 13 13 13 14 15 15 16 17 17 17 15 14 13 14 15 16 16 17 17 18 18 19 20 22 23 24 24 25 26 27 28 28 28 29 29 29 28 28 28 29
40 39 38 36 35 33 33 33 32 32 31 29 27 26 24 23 22 22 21 19 17 15 13 12 11 11 10 10 10 10 11 11 11 12 12 13 13 13 14 14 14 14 14 14 14 13 14 14 15 15 15 15 16 16 16 16 16 16 15 14 13 13 13 14 15 16 16 17 18 18 19 21 22 23 23 23 24 25 26 26 27 28 28 28 28 28 28 29
43 42 41 40 37 35 35 35 35 34 34 32 30 28 26 25 24 24 23 22 21 20 18 17 16 14 13 12 12 12 12 12 13 13 13 13 13 14 15 16 16 16 16 15 15 15 15 15 15 15 16 16 17 17 16 15 15 15 15 14 13 13 13 13 14 14 15 15 16 17 18 19 20 21 21 21 23 24 24 25 26 26 27 27 28 29 29 30
46 45 44 43 40 38 37 37 36 36 36 34 32 31 29 27 26 26 25 24 25 24 23 21 20 19 18 16 15 14 13 13 13 13 13 14 14 14 15 16 17 18 18 17 17 17 16 16 15 15 16 16 17 17 17 16 15 15 14 14 13 13 13 13 14 14 14 14 15 16 17 18 18 19 20 20 21 22 23 24 24 25 26 27 29 30 30 31
49 48 47 45 43 41 40 39 38 37 37 36 34 33 31 30 30 29 28 27 28 28 27 25 24 23 22 20 19 17 16 14 14 13 14 14 15 16 16 16 16 18 19 19 19 19 18 18 17 17 17 17 17 18 18 17 16 16 16 14 14 14 14 14 14 15 15 15 15 15 17 17 17 18 19 18 19 21 22 23 23 24 25 27 29 30 30 31
50 51 50 47 45 45 44 43 41 39 38 37 35 35 34 34 34 33 32 31 30 30 29 28 27 26 25 24 22 21 19 17 16 15 14 15 16 17 19 19 17 18 19 20 20 20 20 20 20 19 19 19 19 18 19 18 17 17 17 16 15 15 16 15 16 16 16 17 16 16 17 17 16 16 17 18 18 19 21 21 22 23 25 27 28 29 30 31
45 51 53 51 48 47 47 46 44 42 40 39 37 36 36 37 37 37 36 35 33 32 31 30 29 29 29 27 25 24 22 20 19 18 17 16 16 17 20 21 20 19 20 20 21 21 21 22 22 22 22 21 21 21 21 20 19 18 19 18 17 17 17 17 17 17 18 18 18 18 18 18 17 16 17 18 18 18 20 20 21 23 24 26 27 28 29 30
40 45 51 54 53 50 49 48 47 45 44 42 40 38 38 38 39 39 39 39 37 35 34 33 33 33 32 30 28 27 26 24 23 21 20 18 18 18 20 22 23 22 22 22 22 22 22 23 23 24 24 24 24 23 23 23 22 20 20 20 20 19 19 20 20 20 20 20 20 20 19 19 18 16 16 17 17 18 19 20 21 22 24 25 26 27 28 29
37 40 45 51 54 54 53 51 49 48 46 45 44 42 41 41 40 41 41 41 40 39 38 37 36 36 35 33 31 29 28 27 26 25 24 23 22 21 21 23 24 24 23 24 24 24 24 25 25 25 26 26 26 26 26 26 24 22 22 22 22 22 22 22 22 22 22 22 22 21 21 21 20 18 16 16 17 18 19 20 21 22 23 24 25 27 28 29
Wind_Direction
326 327 328 329 331 331 331 334 338 342 346 349 351 353 357 2 3 3 5 5 6 5 4 3 6 9 12 15 20 35 55 78 99 113 124 136 149 165 186 208 222 228 232 235 238 240 241 242 242 243 243 242 242 242 242 242 243 243 245 246 246 248 248 247 247 245 244 244 243 244 247 248 249 249 248 246 243 238 235 238 245 251 255 256 259 262 265 267
332 333 333 335 337 336 337 342 349 355 359 2 4 6 10 15 15 14 15 16 17 18 19 21 27 32 36 39 44 54 68 81 94 107 117 127 136 141 148 157 171 184 191 198 209 217 224 228 229 227 224 223 224 225 228 232 236 238 239 240 243 243 243 242 238 235 233 231 233 239 243 245 244 242 239 236 231 227 229 238 246 249 251 254 257 260 263 266
339 340 340 341 343 343 345 351 360 6 10 12 14 16 20 23 24 22 23 26 26 27 31 36 41 46 50 52 54 61 71 82 94 106 116 127 136 143 150 157 163 164 159 158 164 175 184 194 200 202 201 201 202 205 213 220 226 230 231 233 235 232 231 230 227 226 223 223 229 234 236 235 235 233 229 222 219 222 229 237 242 245 249 253 256 260 264 267
348 348 348 348 349 351 354 1 10 16 19 21 22 23 26 29 31 29 29 33 36 36 40 47 51 55 59 61 60 61 68 78 90 101 111 122 132 141 149 152 151 142 135 135 137 141 147 153 162 169 172 177 185 194 200 203 207 213 214 217 219 217 218 219 220 220 217 223 227 226 227 225 220 220 220 217 218 225 232 237 241 246 251 255 260 264 266 266
358 357 356 354 356 360 6 12 19 24 25 26 27 27 29 33 36 35 33 36 42 44 44 51 56 61 65 68 68 66 67 71 79 89 97 104 111 117 122 125 126 124 124 127 128 130 132 137 142 147 156 166 175 182 184 179 177 193 202 204 205 206 208 212 218 217 213 223 228 224 225 223 218 214 213 218 223 229 234 239 244 249 256 262 266 267 268 269
8 7 5 3 4 9 16 21 26 30 30 30 30 31 32 35 39 40 37 36 43 48 48 51 56 62 66 70 72 72 70 68 69 73 78 83 89 95 101 109 114 117 120 122 123 124 128 135 143 149 159 166 166 165 161 154 154 171 192 196 196 196 193 198 215 217 211 216 223 224 224 222 223 219 215 218 225 231 236 241 249 256 263 267 268 269 270 272
18 17 13 12 14 18 24 27 30 34 34 34 34 34 35 36 40 43 42 39 40 47 52 53 56 60 63 66 71 75 75 72 67 64 65 72 81 90 98 105 111 115 116 117 120 124 130 140 151 158 162 161 160 158 148 144 152 164 184 196 194 195 195 197 215 220 211 213 218 221 222 221 224 225 222 222 227 235 243 250 257 261 264 267 270 273 274 275
26 25 21 21 23 24 29 32 34 37 38 37 36 37 37 38 40 43 45 43 41 44 50 56 57 59 60 62 66 71 75 76 72 66 64 70 78 86 94 101 107 113 115 118 122 126 134 147 157 161 161 158 156 153 149 150 155 168 188 202 197 196 201 206 216 221 210 215 222 221 222 223 225 229 231 232 236 244 252 258 262 264 267 270 274 277 278 279
33 32 28 28 30 29 32 36 37 40 41 39 38 38 39 40 41 43 46 46 44 42 45 52 57 58 58 59 62 66 71 75 76 73 71 72 76 80 86 91 97 105 114 121 125 129 140 150 151 156 162 159 153 151 159 169 170 176 189 203 203 200 205 213 220 224 218 222 229 227 226 228 231 236 239 243 246 251 257 261 264 268 272 275 276 277 278 280
36 36 34 33 35 33 34 39 41 42 43 42 40 40 40 41 42 44 46 47 47 45 44 49 57 60 60 58 59 62 68 73 76 76 75 74 76 79 81 84 90 99 110 120 128 137 148 148 143 155 166 157 154 160 167 177 184 187 195 209 220 215 212 219 227 231 232 233 238 236 232 234 240 244 248 253 257 261 264 266 268 271 275 278 278 278 278 279
37 38 37 37 38 36 35 39 43 44 44 44 42 41 41 41 42 44 46 48 49 49 48 51 58 64 66 65 62 61 63 69 75 77 76 73 73 77 80 80 87 101 113 122 132 142 152 154 150 156 163 155 159 173 174 176 187 193 200 214 232 235 224 227 235 239 245 248 251 249 243 244 250 254 258 263 268 272 274 274 274 274 276 277 277 277 277 277
38 38 39 40 39 38 37 38 43 45 46 45 44 42 42 42 43 43 45 48 50 51 51 53 57 64 68 70 70 68 65 64 68 74 78 78 74 74 77 79 87 103 119 137 148 143 142 159 159 151 158 159 166 183 185 180 190 199 208 220 237 246 235 234 242 247 254 260 265 265 262 260 261 263 266 271 275 278 280 279 279 278 277 276 275 275 275 274
37 38 39 40 40 39 39 38 41 46 47 47 46 44 43 43 44 44 45 46 49 51 53 54 57 62 65 67 68 70 71 69 65 65 71 78 82 83 85 91 99 108 121 145 165 165 133 154 156 154 161 167 176 190 198 195 201 209 216 226 243 256 251 248 252 255 259 263 268 273 276 275 274 274 275 278 280 281 281 281 280 279 278 277 276 275 274 274
37 38 39 40 41 40 40 39 40 44 48 48 47 46 45 44 45 45 45 46 47 50 53 55 56 58 62 64 64 65 70 74 72 69 66 69 74 81 88 95 104 114 125 147 174 188 207 264 310 167 166 174 187 196 206 213 221 231 237 239 252 266 269 266 265 264 265 267 270 274 278 278 278 279 279 281 283 283 283 283 282 281 281 280 279 278 277 276
35 37 39 40 41 41 40 40 40 41 47 50 48 47 47 46 46 46 46 46 46 48 51 55 56 58 59 61 63 65 68 72 74 75 73 68 63 66 75 84 94 109 128 148 172 191 217 255 286 263 190 185 199 206 214 225 238 253 265 267 272 281 286 287 285 282 278 276 278 282 284 284 282 279 279 280 281 282 284 284 284 283 282 281 280 280 279 278
31 35 38 40 41 42 41 41 40 40 44 50 50 48 48 47 46 46 47 47 47 47 49 53 56 59 60 60 61 62 65 69 72 74 77 75 68 63 64 73 86 102 125 144 160 180 209 246 261 265 260 217 213 222 230 241 254 266 276 280 287 291 295 300 301 298 293 288 288 291 293 291 287 282 280 280 280 281 282 282 283 283 282 282 281 280 279 278
27 32 36 39 40 42 42 41 41 39 41 47 51 50 49 48 47 46 47 47 48 49 50 52 56 59 62 62 62 62 64 66 68 69 71 72 71 70 67 66 78 97 115 129 135 146 177 220 242 257 279 269 230 234 248 263 281 298 303 302 301 299 299 301 302 300 297 294 292 296 299 298 294 290 287 285 284 285 285 286 286 286 286 285 283 281 280 278
24 27 33 37 39 41 43 42 41 40 40 44 49 51 50 50 49 48 48 49 49 51 52 53 55 59 61 63 63 64 64 64 65 66 66 67 69 69 68 59 59 72 87 101 117 131 153 178 209 251 299 351 197 220 250 285 309 321 325 328 327 323 319 314 312 309 306 304 304 307 308 306 303 300 298 298 298 299 300 300 299 298 296 293 290 287 284 281
22 23 28 33 37 39 42 43 42 41 41 43 47 52 52 51 51 50 49 49 49 50 53 54 55 58 60 62 64 65 65 66 66 67 67 67 68 67 61 54 51 56 63 71 79 89 90 71 53 49 47 54 65 77 60 352 333 327 325 323 324 324 323 322 321 321 320 320 319 319 318 317 318 318 318 320 324 327 329 329 327 323 317 311 306 300 296 290
23 22 23 28 33 37 40 41 42 42 42 43 45 51 54 53 52 52 50 50 51 51 54 56 58 60 61 63 65 67 68 69 69 70 70 69 69 68 65 61 58 58 61 66 69 70 69 63 56 58 59 60 63 62 56 42 14 352 337 329 329 327 326 331 336 343 351 356 1 9 14 19 23 24 27 32 34 34 30 24 17 7 357 347 339 329 319 309
24 22 22 24 28 33 37 40 42 43 43 43 44 50 54 55 54 53 52 51 52 52 54 56 58 60 61 62 64 66 68 70 70 71 71 71 71 71 71 69 68 67 68 71 74 75 76 75 73 71 71 70 70 67 64 60 54 47 42 43 43 38 40 50 58 64 68 70 70 69 69 70 70 69 67 65 60 55 48 41 34 27 21 17 12 7 359 350
23 24 22 22 25 29 33 38 41 43 44 45 45 48 54 57 56 55 54 52 52 53 54 56 59 61 62 63 63 64 68 70 71 73 74 74 75 75 75 74 73 73 73 74 76 77 78 79 80 81 82 82 81 81 80 81 83 84 84 84 84 84 84 85 86 87 86 83 81 81 80 78 75 71 68 65 61 56 50 44 39 35 32 30 27 25 21 18
21 24 23 22 22 26 30 35 39 42 44 45 45 47 52 57 57 57 56 54 54 55 55 56 59 63 65 66 66 66 68 72 74 75 76 78 79 79 78 77 76 76 76 76 77 78 80 82 84 86 87 88 88 89 89 90 91 91 91 91 91 91 90 90 90 89 88 85 84 83 80 77 74 71 67 64 61 57 53 49 45 42 40 38 35 33 30 28
17 23 24 23 21 23 28 32 37 41 44 47 47 48 50 55 57 57 57 56 54 55 56 56 58 63 66 68 69 70 70 72 74 76 77 78 80 81 81 81 80 78 78 78 79 79 80 81 83 85 87 89 91 91 91 91 91 91 91 91 90 90 89 89 89 88 87 86 84 82 78 76 74 71 68 65 63 60 57 55 52 49 46 44 42 40 38 35
7 19 23 24 22 20 24 29 34 39 43 47 49 49 49 53 56 56 58 57 55 55 57 57 58 61 65 68 71 72 72 72 74 75 76 77 78 80 82 84 83 82 82 81 81 82 82 82 82 83 85 87 88 89 89 89 89 89 89 88 88 88 88 88 86 85 84 84 82 80 77 74 72 69 67 65 63 61 59 57 55 52 50 49 47 46 44 43
350 10 19 22 22 21 21 24 29 34 40 45 48 49 49 51 55 56 58 59 57 56 57 59 60 62 65 68 70 72 73 74 75 76 77 78 78 80 82 85 86 86 85 84 84 84 84 84 84 84 84 83 84 86 87 88 88 88 88 87 86 86 85 83 82 81 80 79 78 76 75 72 70 67 64 62 61 59 58 57 55 53 51 50 50 49 48 47
327 353 9 17 21 21 20 21 26 30 34 40 44 48 49 50 54 56 58 59 59 58 58 60 61 62 66 68 70 72 73 74 76 78 79 80 80 81 82 83 85 86 87 87 87 87 86 86 86 85 85 84 85 85 86 87 87 87 86 85 83 82 81 79 78 77 75 74 73 72 71 70 68 66 64 62 60 59 57 57 55 53 52 51 50 50 49 48
305 326 350 6 15 20 20 19 23 27 30 37 42 46 49 51 53 55 58 59 60 60 59 60 60 62 65 68 70 73 74 75 77 79 80 81 82 83 83 84 85 87 88 89 89 89 88 88 88 88 87 86 85 85 85 84 84 83 82 81 80 79 77 76 74 73 72 71 70 69 68 67 65 64 63 61 60 59 58 57 56 54 53 52 51 50 50 49
284 302 324 347 2 12 18 18 21 23 26 33 40 45 49 52 53 55 57 59 60 62 61 60 61 61 64 68 70 73 75 76 78 80 81 83 84 85 85 86 87 87 88 89 89 89 90 89 89 88 87 86 85 84 83 82 80 79 78 77 76 76 75 73 72 71 70 69 69 67 66 65 63 62 61 60 59 59 58 57 56 55 54 52 51 51 51 51
269 282 298 319 342 357 8 14 19 21 21 27 35 41 47 52 54 55 56 57 59 63 64 62 61 61 63 67 70 72 75 77 78 79 81 83 85 86 86 86 87 87 88 87 87 88 88 87 86 86 85 83 82 80 79 77 76 75 74 73 72 71 70 70 69 68 67 66 65 64 63 63 62 62 61 60 59 58 57 56 55 54 53 53 52 52 51 51
256 267 280 294 314 334 349 2 15 20 17 20 28 34 42 49 54 56 56 56 57 60 64 64 61 61 62 65 68 71 73 75 77 78 81 83 84 86 86 86 86 86 85 85 84 84 83 82 81 81 80 79 77 75 74 72 71 71 70 68 67 67 66 65 64 63 62 61 60 59 59 59 59 59 59 58 57 57 56 55 54 54 53 53 52 52 52 52
245 255 266 277 290 305 324 340 1 16 15 15 21 25 33 43 51 56 56 57 57 56 60 64 63 61 61 63 65 68 71 73 75 77 79 81 82 84 85 85 85 84 82 81 80 79 78 77 76 74 73 72 71 70 69 68 66 66 65 64 63 63 62 61 60 59 58 57 56 55 55 54 54 53 53 53 53 53 53 53 52 52 52 52 52 53 53 52
240 244 255 265 274 282 295 312 333 1 9 10 16 18 23 33 44 53 54 57 59 56 56 62 65 65 63 63 62 65 68 71 72 74 76 78 79 81 82 83 83 82 80 78 77 76 75 73 71 70 68 66 65 65 63 63 62 61 60 59 58 58 58 57 56 55 54 52 51 50 50 49 48 47 47 47 47 48 48 48 49 50 50 50 51 52 52 52
240 240 244 254 262 268 275 287 300 325 349 360 10 13 15 25 35 47 55 57 62 61 58 60 63 65 66 66 64 63 65 68 70 71 73 75 76 78 79 80 79 79 77 76 74 72 71 69 67 65 63 61 60 59 57 57 56 56 56 55 54 53 53 52 51 50 49 48 46 45 44 44 43 43 43 42 41 42 43 44 45 46 46 48 49 50 50 51
242 241 240 244 252 259 265 271 279 289 309 332 354 3 6 13 24 36 51 60 62 66 66 63 60 62 66 68 68 66 64 64 66 67 69 70 71 72 73 74 74 74 73 72 70 68 67 65 63 61 59 57 55 54 53 51 51 50 51 50 49 49 48 47 46 46 45 44 42 41 40 40 40 40 39 39 37 37 38 39 40 41 42 44 46 47 48 48
241 242 241 241 245 251 258 263 266 271 280 292 314 336 349 357 7 17 30 47 62 69 72 70 65 62 64 66 69 70 68 65 63 64 65 66 65 66 66 67 68 67 66 65 64 63 63 62 59 57 55 52 52 51 50 48 46 45 45 44 44 44 44 43 42 42 41 40 39 38 37 36 36 36 36 36 35 33 32 34 35 36 37 40 42 43 44 45
241 242 242 242 243 246 250 255 258 262 265 271 281 296 314 337 352 355 359 15 34 64 81 77 71 67 66 64 63 66 69 68 66 62 61 61 60 59 58 58 58 58 57 57 57 56 56 55 53 52 50 47 46 46 46 45 43 41 40 38 38 38 38 38 38 37 36 35 35 34 33 32 32 32 32 32 32 31 30 29 30 31 33 35 36 39 40 41
241 242 242 242 242 242 244 249 253 257 258 260 265 273 283 307 336 341 335 343 352 344 323 226 136 73 72 69 58 55 59 61 65 65 61 56 54 52 49 47 46 45 44 45 46 46 46 44 42 41 40 38 37 37 37 38 38 37 36 34 33 32 30 30 30 30 30 29 29 30 30 29 28 28 28 28 29 29 29 27 26 27 29 30 32 33 35 37
240 241 242 242 242 242 242 245 249 253 254 254 255 260 268 277 294 312 316 319 322 321 319 292 266 258 264 268 308 347 17 28 31 49 58 54 46 44 39 33 30 29 28 29 30 31 31 31 29 29 29 28 28 28 29 29 30 31 30 29 28 27 25 24 24 24 24 24 24 25 26 25 25 25 25 25 25 26 27 26 25 24 24 25 26 28 30 32
239 240 241 241 241 242 242 243 245 249 251 250 248 251 256 261 267 276 287 291 287 285 296 304 290 269 264 264 263 269 279 284 295 319 332 346 357 7 10 6 6 7 8 10 13 14 16 16 15 15 16 17 17 18 19 20 22 24 24 23 23 22 21 19 18 19 19 20 21 22 24 23 22 22 21 21 23 24 24 24 24 23 21 21 21 21 24 26
239 240 240 240 240 240 241 242 243 245 248 248 246 245 245 248 254 260 264 267 268 273 277 287 289 283 273 268 266 266 271 273 276 283 288 297 306 316 321 325 333 340 344 349 353 356 0 2 2 3 4 5 6 6 7 8 11 14 16 16 17 17 17 15 13 14 16 17 17 18 21 22 20 19 19 19 20 22 22 23 23 22 21 20 18 16 18 21
239 239 240 240 240 239 240 242 243 244 246 246 244 242 241 243 247 252 256 256 256 265 270 268 275 281 282 283 278 272 268 270 273 276 279 284 289 292 297 303 311 317 322 328 332 336 342 346 349 350 351 353 354 355 356 357 360 4 8 10 10 9 11 12 10 9 11 16 16 14 15 19 19 16 16 17 18 19 20 21 21 20 20 20 17 15 14 15
239 240 240 240 239 239 239 241 243 244 245 244 244 242 241 242 246 250 252 252 250 255 263 266 271 277 282 286 286 283 277 274 273 273 275 278 281 285 289 292 296 301 306 310 314 319 324 328 332 335 337 340 342 343 345 348 350 355 0 5 5 3 3 7 8 6 5 9 14 13 11 12 15 14 12 13 15 17 18 19 19 19 20 19 17 14 12 12
238 240 241 240 240 239 239 240 241 243 245 245 245 244 242 241 244 248 251 250 249 251 257 263 270 272 275 277 278 281 284 284 281 278 276 276 277 282 287 290 293 294 297 300 302 307 310 313 318 321 324 327 329 332 335 339 343 346 351 357 0 359 358 1 3 3 1 2 6 9 8 7 8 10 9 9 11 13 15 15 16 17 18 18 16 14 13 12
239 240 241 240 240 239 239 239 240 242 244 246 246 245 244 242 242 245 248 250 250 251 252 255 262 267 270 272 273 275 279 282 283 284 282 280 279 280 282 286 289 291 293 295 297 299 302 304 308 312 315 317 320 323 327 332 336 338 341 345 350 353 354 355 357 358 358 357 358 1 4 3 3 5 7 5 6 8 11 13 14 15 15 15 15 15 14 14
240 240 241 241 239 239 239 240 240 241 243 244 246 246 246 245 244 244 245 247 248 248 247 249 254 259 264 267 270 272 273 275 278 282 285 287 286 283 281 281 283 286 289 292 293 295 297 299 302 305 307 310 312 315 319 325 328 330 332 335 338 343 346 347 348 350 352 352 352 354 358 0 359 360 3 3 1 4 8 11 11 11 11 12 13 14 14 14
240 240 241 241 241 240 240 240 241 241 242 243 244 246 247 247 247 245 244 244 245 244 244 244 247 251 256 259 263 266 269 272 274 277 281 285 287 287 285 281 280 281 283 285 288 291 293 295 296 298 300 303 305 308 311 316 318 319 322 326 328 331 335 336 337 340 343 345 347 347 350 355 356 354 357 359 358 359 4 8 8 7 8 10 12 13 13 13
240 241 242 242 241 241 241 241 241 241 242 242 243 245 247 248 248 247 246 244 244 243 243 243 244 247 250 254 257 260 264 267 271 273 277 281 284 286 286 283 281 281 280 281 284 286 288 290 292 294 295 296 298 300 303 307 309 310 314 318 320 320 323 326 328 331 333 336 341 342 343 348 352 350 349 353 355 354 358 3 3 3 5 8 9 10 10 11
240 241 242 242 242 242 242 242 242 241 242 242 243 243 245 246 248 248 248 247 246 245 245 244 245 247 249 251 254 258 261 265 268 269 271 274 279 283 284 282 282 283 284 283 283 283 285 287 289 291 292 292 293 294 296 298 301 302 306 311 312 312 314 317 319 322 325 328 332 336 338 340 344 345 343 346 349 350 352 357 358 358 2 5 5 5 6 8
243 241 241 241 242 242 242 243 243 242 242 242 242 242 243 245 247 248 249 248 248 248 248 247 246 248 248 249 252 256 259 262 265 268 269 269 273 277 280 281 282 284 286 286 284 285 286 286 287 287 287 288 290 291 292 294 296 298 301 304 305 305 307 309 311 314 317 320 324 328 332 333 335 339 338 339 341 343 346 351 354 354 358 0 0 360 1 3
248 245 242 241 241 241 242 243 243 243 243 243 242 242 242 244 245 247 248 249 250 250 250 249 249 249 249 248 250 253 256 259 262 266 270 271 272 274 277 279 280 280 283 285 286 288 288 287 286 286 286 286 287 288 290 292 295 296 297 299 301 301 301 303 305 309 311 314 317 321 325 327 328 331 333 332 333 336 340 345 349 352 354 355 355 355 356 358
249 249 247 244 242 241 241 242 243 243 243 244 243 242 242 243 244 245 247 248 249 250 251 252 252 252 252 250 249 250 253 257 260 263 267 270 272 274 276 278 279 278 279 282 285 288 288 288 288 287 286 285 286 286 287 289 292 295 294 296 298 297 296 298 301 304 306 309 312 315 319 321 322 323 325 325 326 329 333 339 344 348 350 351 351 351 351 353